TimeEST,TemperatureF,Dew PointF,Humidity,Sea Level PressureIn,VisibilityMPH,Wind Direction,Wind SpeedMPH,Gust SpeedMPH,PrecipitationIn,Events,Conditions,WindDirDegrees,DateUTC
12:54 AM,30.0,18.0,61,30.41,10.0,North,8.1,-,N/A,,Overcast,350,2012-12-06 05:54:00
1:54 AM,28.9,17.1,61,30.43,10.0,NW,6.9,-,N/A,,Overcast,320,2012-12-06 06:54:00
2:54 AM,28.9,16.0,58,30.44,10.0,WNW,3.5,-,N/A,,Overcast,300,2012-12-06 07:54:00
3:54 AM,28.9,17.1,61,30.44,10.0,Calm,Calm,-,N/A,,Overcast,0,2012-12-06 08:54:00
4:54 AM,26.1,17.1,69,30.42,10.0,Calm,Calm,-,N/A,,Mostly Cloudy,0,2012-12-06 09:54:00
5:06 AM,26.6,17.6,69,30.37,10.0,Calm,Calm,-,N/A,,Scattered Clouds,0,2012-12-06 10:06:00
5:54 AM,25.0,18.0,75,30.42,10.0,Calm,Calm,-,N/A,,Clear,0,2012-12-06 10:54:00
6:54 AM,25.0,18.0,75,30.42,10.0,SSE,5.8,-,N/A,,Clear,160,2012-12-06 11:54:00
7:54 AM,25.0,19.0,78,30.42,10.0,Calm,Calm,-,N/A,,Clear,0,2012-12-06 12:54:00
8:54 AM,27.0,19.0,72,30.41,10.0,SSE,5.8,-,N/A,,Clear,150,2012-12-06 13:54:00
9:54 AM,28.9,19.0,67,30.40,10.0,ESE,4.6,-,N/A,,Clear,110,2012-12-06 14:54:00
10:54 AM,33.1,19.9,59,30.35,10.0,SSE,8.1,-,N/A,,Clear,160,2012-12-06 15:54:00
11:54 AM,37.0,21.0,52,30.31,10.0,SSE,9.2,-,N/A,,Clear,160,2012-12-06 16:54:00
12:54 PM,39.0,21.9,50,30.26,10.0,South,6.9,-,N/A,,Clear,170,2012-12-06 17:54:00
1:54 PM,43.0,21.0,42,30.22,10.0,South,8.1,-,N/A,,Clear,180,2012-12-06 18:54:00
2:54 PM,43.0,19.9,40,30.20,10.0,SE,11.5,-,N/A,,Clear,140,2012-12-06 19:54:00
3:54 PM,41.0,21.0,45,30.20,10.0,SE,9.2,-,N/A,,Clear,130,2012-12-06 20:54:00
4:54 PM,39.0,19.9,46,30.18,10.0,SSE,11.5,-,N/A,,Clear,150,2012-12-06 21:54:00
5:54 PM,37.9,19.9,48,30.17,10.0,SE,9.2,-,N/A,,Clear,130,2012-12-06 22:54:00
6:54 PM,36.0,19.9,52,30.17,10.0,SSE,5.8,-,N/A,,Clear,150,2012-12-06 23:54:00
7:54 PM,37.9,18.0,45,30.15,10.0,SSE,3.5,-,N/A,,Clear,160,2012-12-07 00:54:00
8:54 PM,37.0,19.0,48,30.14,10.0,SE,10.4,-,N/A,,Clear,140,2012-12-07 01:54:00
9:54 PM,37.9,18.0,45,30.12,10.0,SSE,12.7,-,N/A,,Clear,160,2012-12-07 02:54:00
10:54 PM,37.0,18.0,46,30.12,10.0,SSE,11.5,-,N/A,,Clear,150,2012-12-07 03:54:00
11:54 PM,37.0,19.9,50,30.10,10.0,SE,11.5,-,N/A,,Clear,140,2012-12-07 04:54:00